Location: Carrières
(48.9495°N, 2.0407°E)
Time: 19:53:54
(UTC+00:00)

SR - Pass Details

Date: 20 April 2024
Orbit: 579 x 860 km, 66.7° (Epoch: 23 May)

Event Time Altitude Azimuth Distance (km) Brightness Sun altitude
Exits shadow 01:34:51 54° 140° (SE) 941 ? -25.2°
Maximum altitude 01:35:17 56° 119° (ESE) 920 ? -25.2°
Drops below altitude 10° 01:40:18 10° 43° (NE) 2,240 ? -24.8°
Sets 01:42:37 0° 39° (NE) 3,119 ? -24.6°
